[[{"header":{"parameterUnit":"m.s-1","parameterCategory":1,"la1":30.2991,"la2":30.254,"lo1":-89.0895,"lo2":-89.0444,"dy":0.0017,"dx":0.0017,"nx":28,"ny":28,"refTime":"2025-07-13T03:00:00:Z","depth":0,"parameterNumber":2,"parameterNumberName":"U-component_of_WINDS"},"data":[0,0,0,0,0,0,0,0,0,0,0,0,0,0,0,0,0,0,0,0,0,0,0,0,0,0,0,0,0,0,0,0,0,0,0,0,0,0,0,0,0,0,0,0,0,0,0,0,0,0,0,0,0,0,0,0,0,0,2.5638,2.5639,0,2.567,2.5671,2.5671,2.5605,2.5603,2.5601,2.5599,2.5633,2.5636,2.5639,0,0,0,0,0,0,0,0,0,0,0,0,0,2.552,2.5523,2.5638,2.5639,2.5639,2.567,2.5671,2.5671,2.5606,2.5603,2.5601,2.5598,2.5632,2.5636,2.5639,0,0,0,0,0,0,0,0,0,0,0,0,0,2.5564,2.5524,2.5638,2.561,2.5608,2.567,2.5671,2.5671,2.5606,2.5603,2.56,2.5597,2.5631,2.5636,2.564,2.5731,0,0,2.5653,2.5655,0,0,0,0,0,0,0,0,2.5562,2.5568,2.5614,2.5612,2.561,2.563,2.5642,2.5691,2.5607,2.5607,2.5599,2.5595,2.5635,2.5639,2.5652,2.5733,2.5734,2.5654,2.5656,2.5658,2.5659,0,0,0,0,0,0,0,2.5559,2.5567,2.5651,2.5615,2.5612,2.5596,2.5599,2.5651,2.5639,2.5607,2.5602,2.5607,2.5633,2.5648,2.5652,2.5735,2.5653,2.5657,2.566,2.5662,2.5888,2.5891,0,0,0,0,0,0,2.5559,2.5565,2.565,2.5652,2.5577,2.5601,2.5604,2.5627,2.5638,2.5637,2.5609,2.5604,2.5642,2.5647,2.5653,2.5758,2.5658,2.5662,2.5665,2.5884,2.5889,2.5892,0,0,0,0,0,0,2.5557,2.5567,2.5649,2.5607,2.5616,2.5606,2.5633,2.563,2.5644,2.564,2.5638,2.5626,2.564,2.5647,2.5711,2.5758,2.5664,2.5668,2.588,2.5886,2.589,2.597,0,0,0,0,0,0,2.5554,2.5567,2.5602,2.5608,2.5619,2.5707,2.5636,2.5632,2.5651,2.5644,2.5655,2.5654,2.5638,2.5705,2.5716,2.5762,2.5671,2.5876,2.5883,2.5889,2.5963,2.5977,2.5989,0,0,0,0,0,2.555,2.5624,2.5604,2.5615,2.5662,2.5709,2.5715,2.5694,2.5656,2.569,2.5687,2.5654,2.5752,2.5712,2.5723,2.5772,2.5873,2.5881,2.5888,2.5957,2.5974,2.5988,0,0,0,0,0,0,2.5625,2.5625,2.5602,2.5681,2.5695,2.5698,2.5741,2.5714,2.574,2.5732,2.5706,2.5709,2.5778,2.5782,2.5738,2.5859,2.5806,2.5816,2.5854,2.587,2.5883,2.588,2.5675,0,0,0,0,0,2.565,2.5689,2.5687,2.5756,2.5764,2.5752,2.5772,2.5754,2.5768,2.5775,2.5776,2.5792,2.5825,2.5848,2.588,2.5963,2.5963,2.6003,2.6016,2.6026,2.6035,2.6076,2.6092,2.5917,2.5917,2.5917,0,0,2.5704,2.5708,2.5735,2.5771,2.578,2.582,2.5757,2.5803,2.5831,2.5782,2.5841,2.5843,2.5858,2.5932,2.5964,2.5937,2.6083,2.6036,2.6045,2.6047,2.6085,2.6102,2.6117,2.5922,2.5922,2.5921,0,0,2.582,2.5829,2.5886,2.5896,2.591,2.5901,2.5914,2.5921,2.592,2.5979,2.5941,2.5975,2.6035,2.6046,2.606,2.6178,2.6148,2.619,2.6257,2.6297,2.6311,2.6323,2.6362,2.6377,2.6199,2.6199,2.6199,0,2.5885,2.5943,2.5919,2.5966,2.5982,2.5937,2.5994,2.6005,2.6029,2.6041,2.6011,2.6082,2.609,2.6163,2.6192,2.6206,2.6219,2.6187,2.6311,2.6323,2.6334,2.6371,2.6386,2.6203,2.6203,2.6202,2.6202,0,2.602,2.6061,2.6105,2.6127,2.6149,2.6201,2.6183,2.6208,2.6189,2.6182,2.6241,2.6249,2.6279,2.6296,2.6278,2.6366,2.6348,2.6315,2.626,2.6355,2.639,2.6404,2.621,2.6209,2.6207,2.6206,0,0,2.6185,2.6191,2.6208,2.6216,2.6227,2.6258,2.6307,2.6335,2.6356,2.6374,2.6413,2.6463,2.6431,2.6447,2.643,2.6466,2.6555,2.6427,2.6427,2.6448,2.6649,2.6672,2.6689,2.6536,2.6538,2.654,2.6647,0,2.6298,2.6381,2.6359,2.6442,2.6477,2.6434,2.6477,2.6488,2.6483,2.6512,2.6507,2.6542,2.6499,2.6507,2.6541,2.6537,2.6595,2.653,2.657,2.6572,2.6565,2.6707,2.6733,2.6833,2.666,2.6663,2.6664,0,2.6441,2.6462,2.6547,2.6549,2.6563,2.6602,2.6624,2.6653,2.6665,2.6658,2.6675,2.665,2.6697,2.6643,2.6706,2.6662,2.6678,2.6678,2.6681,2.6682,2.6622,2.671,2.6864,2.6878,2.6686,2.6684,2.6683,0,2.6548,2.6598,2.6654,2.6663,2.6669,2.6696,2.6699,2.6707,2.6725,2.6745,2.6756,2.6782,2.6796,2.6816,2.6799,2.6762,2.6864,2.6809,2.6858,2.6859,2.688,2.6879,2.7037,2.6895,2.6895,2.6894,2.6894,0,2.6675,2.6728,2.6702,2.6737,2.6794,2.6769,2.6827,2.6826,2.6833,2.6866,2.6832,2.6863,2.6839,2.6869,2.6856,2.6908,2.6916,2.6911,2.6906,2.6912,2.6913,2.692,2.6912,2.6898,2.6898,2.6897,2.6896,0,2.6804,2.6789,2.6847,2.6847,2.6848,2.689,2.6889,2.692,2.6913,2.6954,2.6963,2.6951,2.6983,2.6968,2.7003,2.6994,2.7061,2.7048,2.7056,2.7052,2.7101,2.7095,2.7267,2.7287,2.7135,2.7137,2.7138,0,2.6884,2.6924,2.6926,2.6945,2.6951,2.6982,2.6999,2.6976,2.6995,2.7009,2.7038,2.7067,2.7089,2.7143,2.7137,2.7163,2.7149,2.7208,2.7153,2.7157,2.7146,2.7143,2.7146,2.7218,2.722,2.7221,2.7222,0,2.7028,2.7018,2.7043,2.7065,2.7085,2.7102,2.7116,2.7134,2.7111,2.7134,2.7165,2.7182,2.7216,2.7245,2.7267,2.727,2.7242,2.724,2.7252,2.7257,2.7259,2.7256,2.7083,2.7236,2.7234,2.7233,2.7233,2.7232,2.7133,2.7164,2.717,2.7198,2.7206,2.7219,2.7247,2.7242,2.7268,2.7293,2.7278,2.7315,2.7323,2.7349,2.7356,2.7384,2.7361,2.7379,2.7383,2.7388,2.7392,2.7257,2.7388,2.7388,2.7388,2.7387,2.7387,0,2.7271,2.7272,2.7299,2.7318,2.734,2.7311,2.7324,2.7344,2.7376,2.7386,2.7407,2.7443,2.747,2.7466,2.749,2.7513,2.7501,2.752,2.7517,2.7518,2.7414,2.7399,2.753,2.753,2.753,2.753,2.753,2.753,2.7346,2.7396,2.7387,2.744,2.7441,2.7476,2.7485,2.7497,2.7504,2.7544,2.7566,2.7563,2.7566,2.759,2.7613,2.7611,2.7621,2.7645,2.7638,2.754,2.7526,2.7512,2.7498,2.7648,2.7648,2.7739,2.774,2.774]},{"header":{"parameterUnit":"m.s-1","parameterCategory":1,"la1":30.2991,"la2":30.254,"lo1":-89.0895,"lo2":-89.0444,"dy":0.0017,"dx":0.0017,"nx":28,"ny":28,"refTime":"2025-07-13T03:00:00:Z","depth":0,"parameterNumber":3,"parameterNumberName":"V-component_of_WINDS"},"data":[0,0,0,0,0,0,0,0,0,0,0,0,0,0,0,0,0,0,0,0,0,0,0,0,0,0,0,0,0,0,0,0,0,0,0,0,0,0,0,0,0,0,0,0,0,0,0,0,0,0,0,0,0,0,0,0,0,0,2.9258,2.9259,0,2.9341,2.9342,2.9343,2.9335,2.9333,2.9332,2.9331,2.9411,2.9414,2.9417,0,0,0,0,0,0,0,0,0,0,0,0,0,2.909,2.9093,2.9258,2.9259,2.926,2.9341,2.9342,2.9343,2.9335,2.9333,2.9332,2.933,2.941,2.9414,2.9418,0,0,0,0,0,0,0,0,0,0,0,0,0,2.9166,2.9094,2.9258,2.9266,2.9268,2.934,2.9342,2.9343,2.9335,2.9333,2.9331,2.933,2.9409,2.9413,2.9418,2.9487,0,0,2.9433,2.9436,0,0,0,0,0,0,0,0,2.9162,2.9173,2.9264,2.9266,2.9268,2.9326,2.9312,2.9391,2.9336,2.9309,2.9331,2.9329,2.9384,2.9391,2.941,2.9491,2.9494,2.9434,2.9437,2.9439,2.944,0,0,0,0,0,0,0,2.9157,2.9169,2.9291,2.9265,2.9268,2.9264,2.9273,2.9327,2.9356,2.9312,2.9311,2.9321,2.9384,2.9405,2.9412,2.9495,2.9434,2.9438,2.9441,2.9443,2.9634,2.9636,0,0,0,0,0,0,2.915,2.9165,2.9288,2.9293,2.9209,2.9269,2.9279,2.9309,2.9356,2.9361,2.9323,2.9321,2.9398,2.9406,2.9415,2.9497,2.9439,2.9444,2.9446,2.9632,2.9635,2.9637,0,0,0,0,0,0,2.9147,2.9161,2.9285,2.9229,2.9244,2.9274,2.9308,2.9311,2.9332,2.9364,2.9369,2.9339,2.9397,2.9408,2.9469,2.95,2.9446,2.945,2.963,2.9633,2.9636,2.9663,0,0,0,0,0,0,2.9142,2.916,2.9187,2.923,2.9247,2.9339,2.931,2.9314,2.9342,2.9339,2.9381,2.9386,2.9396,2.9462,2.9474,2.9505,2.9454,2.9627,2.9631,2.9635,2.9659,2.9666,2.9672,0,0,0,0,0,2.9136,2.9191,2.9189,2.9204,2.9283,2.9341,2.9351,2.9363,2.9344,2.9371,2.9391,2.9384,2.9495,2.9468,2.9482,2.9515,2.9625,2.963,2.9635,2.9656,2.9665,2.9672,0,0,0,0,0,0,2.915,2.9197,2.9195,2.9266,2.93,2.934,2.9374,2.9372,2.9411,2.9407,2.9419,2.9429,2.949,2.9509,2.9478,2.9583,2.9557,2.9565,2.9569,2.9577,2.9584,2.9577,2.9458,0,0,0,0,0,2.9162,2.9207,2.9245,2.9303,2.9321,2.9344,2.937,2.9377,2.9412,2.9426,2.945,2.9483,2.9525,2.9552,2.9593,2.9662,2.967,2.9692,2.9699,2.9704,2.971,2.9746,2.9756,2.9653,2.9653,2.9653,0,0,2.9186,2.9217,2.9244,2.9307,2.9334,2.9378,2.9356,2.9405,2.9437,2.9432,2.9492,2.9511,2.9549,2.9614,2.9644,2.9631,2.974,2.971,2.9714,2.9717,2.9752,2.9762,2.9771,2.9656,2.9655,2.9655,0,0,2.9252,2.9281,2.9333,2.936,2.9402,2.9418,2.943,2.9471,2.9483,2.9544,2.954,2.9579,2.9651,2.9678,2.9701,2.9777,2.9771,2.979,2.9824,2.9859,2.9868,2.9875,2.99,2.991,2.9796,2.9796,2.9796,0,2.9276,2.9345,2.9359,2.9408,2.9435,2.9434,2.9485,2.9511,2.9563,2.9581,2.9567,2.9657,2.9683,2.9753,2.9772,2.9791,2.9804,2.9784,2.9866,2.9873,2.988,2.9904,2.9914,2.9798,2.9798,2.9798,2.9797,0,2.9372,2.9419,2.9455,2.9507,2.9538,2.9588,2.9608,2.9638,2.9642,2.9658,2.9718,2.9749,2.9795,2.9813,2.9816,2.9884,2.9874,2.9863,2.9837,2.9891,2.9914,2.9924,2.9801,2.98,2.9799,2.9799,0,0,2.9448,2.9507,2.952,2.9543,2.9589,2.9625,2.9675,2.9721,2.9745,2.9781,2.9822,2.9883,2.9873,2.9899,2.9906,2.9937,2.9994,2.9922,2.9923,2.9932,3.0067,3.0075,3.0085,2.9991,2.9993,2.9994,3.0064,0,2.9518,2.9606,2.962,2.9697,2.974,2.974,2.9782,2.9814,2.9831,2.9869,2.9887,2.993,2.9914,2.9929,2.9961,2.998,3.0021,2.9976,3.0026,3.0028,3.0015,3.0098,3.0106,3.017,3.0073,3.0075,3.0076,0,2.961,2.965,2.9732,2.9771,2.979,2.9828,2.9871,2.9908,2.9944,2.9953,2.9983,2.9986,3.0035,3.0008,3.0075,3.0044,3.0066,3.0079,3.0081,3.0085,3.0054,3.0102,3.019,3.0199,3.009,3.0089,3.0088,0,2.9656,2.9729,2.9788,2.9807,2.9855,2.9882,2.9903,2.9937,2.9964,3.0001,3.0018,3.0061,3.0083,3.0115,3.0129,3.0109,3.0195,3.0169,3.0203,3.0202,3.0219,3.0218,3.0311,3.0236,3.0236,3.0236,3.0236,0,2.9731,2.978,2.9808,2.9844,2.9899,2.9914,2.9968,2.9988,3.0018,3.0056,3.0059,3.0094,3.0111,3.0149,3.016,3.0213,3.0223,3.0231,3.0233,3.023,3.0229,3.0243,3.0238,3.0239,3.0238,3.0238,3.0237,0,2.979,2.9811,2.9874,2.9915,2.9926,2.9965,2.9999,3.0032,3.0049,3.0098,3.011,3.0136,3.018,3.0198,3.0252,3.0259,3.0319,3.0319,3.0308,3.0308,3.034,3.0336,3.0444,3.0458,3.0376,3.0377,3.0377,0,2.9835,2.9873,2.9919,2.9945,2.9967,3.001,3.0037,3.0054,3.0082,3.0125,3.0153,3.0198,3.0235,3.0305,3.0328,3.0369,3.0368,3.0403,3.0374,3.037,3.0367,3.0363,3.0367,3.0408,3.0409,3.0409,3.041,0,2.9913,2.9922,2.9962,3.0007,3.004,3.0075,3.0109,3.013,3.0151,3.0183,3.0229,3.0258,3.0313,3.0357,3.0399,3.0419,3.0418,3.0419,3.0429,3.0425,3.0416,3.042,3.032,3.0416,3.0416,3.0415,3.0415,3.0415,2.9966,2.9999,3.0036,3.0081,3.0109,3.014,3.0174,3.0195,3.0235,3.0282,3.0289,3.0338,3.0372,3.0429,3.0451,3.0488,3.0479,3.0493,3.0496,3.0499,3.05,3.0412,3.0496,3.0496,3.0496,3.0496,3.0496,0,3.0042,3.0066,3.0107,3.0155,3.019,3.0188,3.0226,3.0254,3.0298,3.033,3.0367,3.0419,3.0461,3.0488,3.053,3.0555,3.0555,3.0565,3.0563,3.0567,3.0507,3.0494,3.0564,3.0564,3.0564,3.0564,3.0564,3.0564,3.0086,3.0142,3.0155,3.0224,3.0248,3.0297,3.0318,3.0347,3.0373,3.0432,3.0468,3.0485,3.0515,3.056,3.0598,3.0604,3.0619,3.063,3.0635,3.0578,3.0571,3.0564,3.0552,3.0633,3.0633,3.0691,3.0692,3.0692]}]]